SKYNET 4E

Last updated on Jan. 29, 2020, 4:37 a.m. UTC

1 25639U 99009B   20028.71446046 -.00000033  00000-0  00000+0 0  9992
2 25639  10.7973  21.9215 0003537 299.2715  62.2302  1.00270598 76647
UTC
Height (km)
Latitude
Longitude
Inclination
Orbital Period
UTC large
Height (km)
Speed (km/s)
/
Latitude / Longitude
Inclination (degrees)
Orbital Period (minutes)
Azimuth
Elevation
Range (km)
Doppler Factor
iOS Compass Heading
iOS Angle

Next 30 passes for location: Hong Kong

Rise time Rise Azimuth (degrees) Set time Set Azimuth (degrees) Duration Max altitude (degrees)

No matching passes for this satellites